Regional Weather Roundup
Issued by NWS

Home | Current Version | Previous Version | Text Only | Print | Product List | Glossary Off
Versions: 1 2 3 4 5 6 7 8 9 10 11 12 13 14 15 16 17 18 19 20 21 22 23 24 25 26 27 28 29 30 31 32 33 34 35 36 37 38 39 40 41 42 43 44 45 46 47 48 49 50

967
ASUS45 KTFX 261910
RWRMT
MONTANA REGIONAL WEATHER ROUNDUP
NATIONAL WEATHER SERVICE GREAT FALLS MT
1200 PM MST SUN FEB 26 2017

NOTE: "FAIR" INDICATES FEW OR NO CLOUDS BELOW 12000 FEET WITH NO
SIGNIFICANT WEATHER AND/OR OBSTRUCTIONS TO VISIBILITY.

MTZ001>007-043-262000-
WEST OF THE DIVIDE

CITY           SKY/WX    TMP DP  RH WIND       PRES   REMARKS
KALISPELL      SNOW      22  20  92 NE22      29.71S VSB 1/4 WCI   6
MISSOULA       CLOUDY    29  24  82 SE9       29.72F HAZE    WCI  20
BUTTE          CLOUDY    23  10  57 S8        29.66S WCI  14
MULLAN PASS    SNOW      17  16  95 CALM      29.55S VSB 1/2
ANACONDA         N/A     27  12  54 SW14      29.67S WCI  15
DEER LODGE       N/A     28  16  59 S3        29.70F
EUREKA           N/A     27  21  80 W7        29.73F WCI  19
HAMILTON         N/A     34  18  51 SE12      29.69F WCI  25
LIBBY            N/A     30  27  86 CALM      29.69F
RONAN            N/A     30  23  75 S5        29.75F
$$

MTZ008-052>055-262000-
SOUTHWEST MONTANA

CITY           SKY/WX    TMP DP  RH WIND       PRES   REMARKS
BOZEMAN        CLOUDY    28  17  63 NE10      29.71F WCI  19
DILLON         CLOUDY    28   6  39 SW12      29.67F WCI  18
W YELLOWSTONE  HAZE      16   7  67 SW17G28   29.72F VSB 3/4 WCI   0
ENNIS          SUNNY     27   5  39 S21       29.75S WCI  13
THREE FORKS      N/A     30  30 100 SW18      29.74S WCI  18
$$

MTZ009-010-012-014-046-048-049-054-262000-
EAST SLOPES AND CENTRAL MONTANA

CITY           SKY/WX    TMP DP  RH WIND       PRES   REMARKS
CUT BANK       LGT SNOW  17  13  84 N16       29.79S VSB 3/4 WCI   2
GREAT FALLS    LGT SNOW  23  17  78 N17       29.75R WCI   9
MALMSTROM AFB  LGT SNOW  23  21  93 NE17      29.76S WCI   9
HELENA         CLOUDY    30  20  66 N5        29.70F
AUGUSTA        LGT SNOW  17  14  88 N18       29.73R FOG     WCI   1
BOWMANS CRNR   SNOW      17  15  91 N16       29.71R VSB 1/2 WCI   2
CHOTEAU          N/A     21  16  79 N15       29.78S HAZE    WCI   8
CONRAD           N/A     21  16  81 N13       29.83R WCI   9
POWER          LGT SNOW  20  15  82 N15       29.75R WCI   6
RAYNESFORD     SNOWSHWR  23  20  88 NW8       29.71F FOG     WCI  14
ULM            LGT SNOW  22  19  89 MISG      29.75R VSB 1
$$

MTZ011-013-016-021-045-047-050-051-262000-
NORTH CENTRAL MONTANA

CITY           SKY/WX    TMP DP  RH WIND       PRES   REMARKS
HAVRE          CLOUDY    24  14  65 NW12      29.82S WCI  13
LEWISTOWN      CLOUDY    24  18  77 CALM      29.72S
N BAR RANCH      N/A     25  12  58 NW10      29.72S WCI  15
CHINOOK          N/A     25  12  58 NW9       29.84R WCI  15
DENTON         SNOWSHWR  23  18  80 N10       29.72S FOG     WCI  13
FORT BENTON      N/A     25  16  68 MISG      29.81S
GEYSER         LGT SNOW  23  19  85 N8        29.71S WCI  13
GRASS RANGE    PTSUNNY   26  17  71 CALM      29.69F
JUDITH GAP     LGT SNOW  21  17  84 NW7       29.68F VSB 5/8 WCI  12
ROY            PTSUNNY   26  17  67 MISG      29.73S
STANFORD       SNOWSHWR  23  19  84 NE9       29.70S FOG     WCI  13
WINIFRED       FLURRIES  24  17  74 N7        29.74R WCI  16
$$

MTZ017>020-022>027-061-062-262000-
NORTHEAST MONTANA

CITY           SKY/WX    TMP DP  RH WIND       PRES   REMARKS
GLASGOW        CLOUDY    24  17  74 NW9       29.77S WCI  14
JORDAN           N/A     30  17  58 NW16      29.77R WCI  19
WOLF POINT     CLOUDY    25  18  74 CALM      29.79R
PLENTYWOOD       N/A     18  12  79 W5        29.75S
POPLAR           N/A     21  16  79 SW6       29.79R WCI  14
$$

MTZ028>42-056>058-262000-
SOUTHCENTRAL AND SOUTHEAST MONTANA

CITY           SKY/WX    TMP DP  RH WIND       PRES   REMARKS
BAKER          CLOUDY    30  21  69 W20G25    29.70S WCI  17
BILLINGS       PTSUNNY   33  12  41 SW12G17   29.73F WCI  24
LIVINGSTON     CLOUDY    30  10  43 SW29G35   29.67F WCI  15
MILES CITY     CLOUDY    34  17  50 NW18      29.75R WCI  23
BIG TIMBER     SUNNY     28  12  50 W20       29.71F WCI  15
EKALAKA          N/A     32  16  52 W23       29.70S WCI  19
FORSYTH          N/A     34  18  51 W15       29.75S WCI  24
HARLOWTON      PTSUNNY   31  14  50 W22       29.68F WCI  18
LAUREL           N/A     33  11  40 S9        29.74S WCI  25
$$

REGIONAL REPORTS...DAKOTAS

CITY           SKY/WX    TMP DP  RH WIND       PRES   REMARKS
WILLISTON      MOSUNNY   22  14  71 NW6       29.77S WCI  14
MINOT          PTSUNNY   21   8  57 NW6       29.77S WCI  13
DICKINSON      CLOUDY    29  22  75 W21       29.67S WCI  16
BEACH            N/A    N/A N/A N/A MISG        N/A
CROSBY           N/A     23  16  74 SW10      29.77S WCI  12
TIOGA            N/A     16  16 100 SW5       29.76R
WATFORD CITY   PTSUNNY   19  16  86 N7        29.75S WCI  10
BISMARCK       CLOUDY    20  13  74 E5        29.79F
GRAND FORKS    MOSUNNY   18   3  52 W9        29.85F WCI   7
FARGO          SUNNY     17   9  70 NW6       29.88S WCI   9
BUFFALO SD       N/A     35  18  49 W28G36    29.65S WCI  22
RAPID CITY     MOSUNNY   38  15  39 VRB7      29.77S
$$

REGIONAL REPORTS...WYOMING/IDAHO/WASHINGTON

CITY           SKY/WX    TMP DP  RH WIND       PRES   REMARKS
GILLETTE       CLOUDY    30  11  45 SW8       29.74S WCI  22
SHERIDAN       CLOUDY    35  12  38 S7G16     29.73F WCI  29
BUFFALO WY     CLOUDY    28  11  48 SE6       29.72S WCI  22
CODY           CLOUDY    30   4  33 NW8       29.72S WCI  22
YELLOWSTONE LA   N/A     15   7  70 VRB7      29.70S WCI   5
IDAHO FALLS    CLOUDY    19  14  81 N6        29.85F WCI  11
SALMON         CLOUDY    30  10  43 S7        29.72S WCI  23
BOISE          CLOUDY    35  17  47 SE17      29.80F WCI  25
SPOKANE        LGT SNOW  31  27  85 E6        29.70F FOG     WCI  25
$$

REGIONAL REPORTS...ALBERTA

CITY           SKY/WX    TMP DP  RH WIND       PRES   REMARKS
EDMONTON       MOSUNNY    5  -2  72 N16       29.93F WCI -14
CALGARY        FLURRIES  12   5  73 N18       29.83S WCI  -5
LETHBRIDGE     CLOUDY    19  10  68 NW13      29.86R WCI   7
MEDICINE HAT   FLURRIES  21  16  79 W10       29.85S WCI  10
WATERTON GATE    N/A     16  10  79 N8          N/A  WCI   5
CARDSTON         N/A     18  12  79 N7          N/A  WCI   8
MILK RIVER       N/A     19  12  73 N13         N/A  WCI   7
$$

REGIONAL REPORTS...SASKATCHEWAN

CITY           SKY/WX    TMP DP  RH WIND       PRES   REMARKS
SWIFT CURRENT  PTSUNNY   18  12  79 NW15      29.73S WCI   3
REGINA         PTSUNNY   23  12  63 NW17      29.73R WCI   9
SASKATOON      LGT SNOW  18  12  79 W3        29.75F
CYPRESS HILLS    N/A     12   9  85 NW10G17     N/A  WCI  -1
VAL MARIE        N/A     21  14  73 N18         N/A  WCI   6
ROCKGLEN         N/A     18  12  79 N15         N/A  WCI   3
ASSINIBOIA       N/A      7  -4  61 N18G25      N/A  WCI -12
$$




USA.gov is the U.S. government's official web portal to all federal, state and local government web resources and services.